Black Eagle — WDJJ — position and weather

sailwx.info

Track history (hours):
 
Tides and Currents Weather Stations Pressure Air Temp Water Temp Dewpoint Dewpoint Depression Visibility Wind Speed Wind Dir Waves Ship Positions

Black Eagle

More information available from US FCC via Universal Licensing System and Coast Guard Vessel Documentation Center.

Last reported at 2014-Mar-10 17:27 UTC. Time now 2014-Jul-23 01:41 UTC.
Position N 38°35' W 124°07'.
Warning: this ship's position is months out of date.

Length 189 m; draft 9.7 m.

MMSI: 369542000.

Date/timePositionNaut miles runAvg speedWind from/ knotsBaromVisibWave heightAir tempDewpointWater temp
2014-Mar-10 17:27N 38°35' W 124°07'1010.8
2014-Mar-10 16:33N 38°26' W 124°02'1111.4
2014-Mar-10 15:33N 38°15' W 123°57'1111.1
2014-Mar-10 14:33N 38°05' W 123°51'1111.1
2014-Mar-10 13:33N 37°55' W 123°45'1111.2
2014-Mar-10 12:33N 37°45' W 123°39'1411.5
2014-Mar-10 11:22N 37°33' W 123°32'911.3
2014-Mar-10 10:33N 37°25' W 123°26'1111.0
2014-Mar-10 09:33N 37°15' W 123°19'1211.9
2014-Mar-10 08:32N 37°05' W 123°12'1212.0
2014-Mar-10 07:33N 36°54' W 123°04'1212.1
2014-Mar-10 06:33N 36°44' W 122°57'1212.2
2014-Mar-10 05:33N 36°33' W 122°49'1212.0
2014-Mar-10 04:33N 36°23' W 122°42'1211.7
2014-Mar-10 03:33N 36°13' W 122°34'1211.8
2014-Mar-10 02:33N 36°03' W 122°27'1211.7
2014-Mar-10 01:33N 35°53' W 122°20'1211.9
2014-Mar-10 00:33N 35°43' W 122°12'1212.3
2014-Mar-09 23:33N 35°32' W 122°05'1312.6
2014-Mar-09 22:33N 35°21' W 121°57'1312.6
2014-Mar-09 21:33N 35°10' W 121°49'1312.9
2014-Mar-09 20:33N 34°59' W 121°41'1312.9
2014-Mar-09 19:33N 34°48' W 121°34'13213.0
2014-Mar-09 09:25N 33°59' W 119°05'1414.0
2014-Mar-09 08:27N 33°53' W 118°50'1213.8
2014-Mar-09 07:33N 33°46' W 118°38'1413.5
2014-Mar-09 06:33N 33°40' W 118°23'1010.4
2014-Mar-09 05:33N 33°43' W 118°11'2 1.7
2014-Mar-09 04:32N 33°43' W 118°13'0 0.2
2014-Mar-09 03:28N 33°43' W 118°13'0 0.0
2014-Mar-09 02:31N 33°43' W 118°13'0 0.0
2014-Mar-09 01:09N 33°43' W 118°13'0 0.0
2014-Mar-08 23:29N 33°44' W 118°13'0 0.0
2014-Mar-08 22:33N 33°44' W 118°13'0 0.0
2014-Mar-08 21:15N 33°44' W 118°13'0 0.0
2014-Mar-08 19:10N 33°44' W 118°13'0 0.0
2014-Mar-08 18:28N 33°44' W 118°13'0 0.1
2014-Mar-08 17:33N 33°43' W 118°13'1 1.5
2014-Mar-08 16:33N 33°43' W 118°11'9 9.4
2014-Mar-08 15:33N 33°34' W 118°09'1111.1
2014-Mar-08 14:33N 33°24' W 118°05'1111.4
2014-Mar-08 13:33N 33°13' W 118°01'8 7.9
2014-Mar-08 12:33N 33°05' W 117°58'1413.7
2014-Mar-08 11:33N 32°52' W 117°54'1313.4
2014-Mar-08 10:33N 32°39' W 117°50'1313.1
2014-Mar-08 09:34N 32°27' W 117°45'1312.9
2014-Mar-08 08:33N 32°15' W 117°39'1312.7
2014-Mar-08 07:33N 32°03' W 117°33'1312.8
2014-Mar-08 06:33N 31°51' W 117°27'1312.6
2014-Mar-08 05:33N 31°40' W 117°21'  
Track history (hours):
 
Tides and Currents Weather Stations Pressure Air Temp Water Temp Dewpoint Dewpoint Depression Visibility Wind Speed Wind Dir Waves Ship Positions

Black Eagle

More information available from US FCC via Universal Licensing System and Coast Guard Vessel Documentation Center.

Last reported at 2014-Mar-10 17:27 UTC. Time now 2014-Jul-23 01:41 UTC.
Position N 38°35' W 124°07'.
Warning: this ship's position is months out of date.

Length 189 m; draft 9.7 m.

MMSI: 369542000.

Date/timePositionNaut miles runAvg speedWind from/ knotsBaromVisibWave heightAir tempDewpointWater temp
2014-Mar-10 17:27N 38°35' W 124°07'1010.8
2014-Mar-10 16:33N 38°26' W 124°02'1111.4
2014-Mar-10 15:33N 38°15' W 123°57'1111.1
2014-Mar-10 14:33N 38°05' W 123°51'1111.1
2014-Mar-10 13:33N 37°55' W 123°45'1111.2
2014-Mar-10 12:33N 37°45' W 123°39'1411.5
2014-Mar-10 11:22N 37°33' W 123°32'911.3
2014-Mar-10 10:33N 37°25' W 123°26'1111.0
2014-Mar-10 09:33N 37°15' W 123°19'1211.9
2014-Mar-10 08:32N 37°05' W 123°12'1212.0
2014-Mar-10 07:33N 36°54' W 123°04'1212.1
2014-Mar-10 06:33N 36°44' W 122°57'1212.2
2014-Mar-10 05:33N 36°33' W 122°49'1212.0
2014-Mar-10 04:33N 36°23' W 122°42'1211.7
2014-Mar-10 03:33N 36°13' W 122°34'1211.8
2014-Mar-10 02:33N 36°03' W 122°27'1211.7
2014-Mar-10 01:33N 35°53' W 122°20'1211.9
2014-Mar-10 00:33N 35°43' W 122°12'1212.3
2014-Mar-09 23:33N 35°32' W 122°05'1312.6
2014-Mar-09 22:33N 35°21' W 121°57'1312.6
2014-Mar-09 21:33N 35°10' W 121°49'1312.9
2014-Mar-09 20:33N 34°59' W 121°41'1312.9
2014-Mar-09 19:33N 34°48' W 121°34'13213.0
2014-Mar-09 09:25N 33°59' W 119°05'1414.0
2014-Mar-09 08:27N 33°53' W 118°50'1213.8
2014-Mar-09 07:33N 33°46' W 118°38'1413.5
2014-Mar-09 06:33N 33°40' W 118°23'1010.4
2014-Mar-09 05:33N 33°43' W 118°11'2 1.7
2014-Mar-09 04:32N 33°43' W 118°13'0 0.2
2014-Mar-09 03:28N 33°43' W 118°13'0 0.0
2014-Mar-09 02:31N 33°43' W 118°13'0 0.0
2014-Mar-09 01:09N 33°43' W 118°13'0 0.0
2014-Mar-08 23:29N 33°44' W 118°13'0 0.0
2014-Mar-08 22:33N 33°44' W 118°13'0 0.0
2014-Mar-08 21:15N 33°44' W 118°13'0 0.0
2014-Mar-08 19:10N 33°44' W 118°13'0 0.0
2014-Mar-08 18:28N 33°44' W 118°13'0 0.1
2014-Mar-08 17:33N 33°43' W 118°13'1 1.5
2014-Mar-08 16:33N 33°43' W 118°11'9 9.4
2014-Mar-08 15:33N 33°34' W 118°09'1111.1
2014-Mar-08 14:33N 33°24' W 118°05'1111.4
2014-Mar-08 13:33N 33°13' W 118°01'8 7.9
2014-Mar-08 12:33N 33°05' W 117°58'1413.7
2014-Mar-08 11:33N 32°52' W 117°54'1313.4
2014-Mar-08 10:33N 32°39' W 117°50'1313.1
2014-Mar-08 09:34N 32°27' W 117°45'1312.9
2014-Mar-08 08:33N 32°15' W 117°39'1312.7
2014-Mar-08 07:33N 32°03' W 117°33'1312.8
2014-Mar-08 06:33N 31°51' W 117°27'1312.6
2014-Mar-08 05:33N 31°40' W 117°21'  

Dump ship's entire track history